Location: Mahannah Oil Field
(37.4664°N, 96.6003°W)
Time: 09:36:01
(UTC+00:00)

Courier 1B - Pass Details

Date: 28 January 2021
Orbit: 962 x 1209 km, 28.3° (Epoch: 02 March)

Event Time Altitude Azimuth Distance (km) Brightness Sun altitude
Enters shadow 04:20:56 - 237° (WSW) 3,893 10.9 -54.1°
Rises 04:21:00 0° 237° (WSW) 3,873 - -54.1°
Reaches altitude 10° 04:24:07 10° 228° (SW) 2,876 - -54.7°
Maximum altitude 04:30:08 32° 168° (SSE) 1,684 - -55.8°
Drops below altitude 10° 04:35:53 10° 108° (ESE) 2,742 - -56.8°
Sets 04:38:46 0° 98° (E) 3,667 - -57.3°
